Satellite-Ground Cal/Val Region Overpasses Predictions

Prediction of Satellite NPP Overpassing Cal/Val Region: PacNW

Region Location: (Latitude: 10.00, Longitude: 139.50) to (Latitude: 22.70, Longitude: 165.60).

Table of predicted overpasses for the next 14.0 days since TLE Epoch: 8/2/2013
Interval Starting Time Starting Location Ending Time Ending Location
1 08/02/2013 14:52:03 ( 22.69, 161.90) 08/02/2013 14:55:39 ( 10.01, 158.88)
2 08/03/2013 03:42:39 ( 10.03, 144.03) 08/03/2013 03:46:14 ( 22.65, 141.02)
3 08/03/2013 14:34:16 ( 18.40, 165.60) 08/03/2013 14:36:39 ( 10.01, 163.63)
4 08/03/2013 16:14:33 ( 22.69, 141.28) 08/03/2013 16:16:37 ( 15.41, 139.51)
5 08/04/2013 03:23:39 ( 10.03, 148.78) 08/04/2013 03:27:14 ( 22.65, 145.77)
6 08/04/2013 15:55:33 ( 22.68, 146.03) 08/04/2013 15:59:09 ( 10.01, 143.01)
7 08/05/2013 03:04:38 ( 10.03, 153.54) 08/05/2013 03:08:13 ( 22.65, 150.53)
8 08/05/2013 15:36:32 ( 22.68, 150.79) 08/05/2013 15:40:08 ( 10.00, 147.77)
9 08/06/2013 02:45:38 ( 10.03, 158.29) 08/06/2013 02:49:13 ( 22.65, 155.28)
10 08/06/2013 15:17:32 ( 22.68, 155.54) 08/06/2013 15:21:08 ( 10.00, 152.52)
11 08/07/2013 02:26:37 ( 10.04, 163.05) 08/07/2013 02:30:12 ( 22.66, 160.04)
12 08/07/2013 14:58:31 ( 22.68, 160.30) 08/07/2013 15:02:06 ( 10.06, 157.29)
13 08/08/2013 02:10:17 ( 19.43, 165.59) 08/08/2013 02:11:12 ( 22.66, 164.79)
14 08/08/2013 03:49:07 ( 10.04, 142.42) 08/08/2013 03:52:36 ( 22.31, 139.50)
15 08/08/2013 14:39:31 ( 22.68, 165.05) 08/08/2013 14:43:06 ( 10.06, 162.04)
16 08/08/2013 16:21:01 ( 22.68, 139.67) 08/08/2013 16:21:12 ( 22.03, 139.51)
17 08/09/2013 03:30:06 ( 10.04, 147.18) 08/09/2013 03:33:41 ( 22.66, 144.17)
18 08/09/2013 16:02:00 ( 22.67, 144.43) 08/09/2013 16:05:35 ( 10.05, 141.42)
19 08/10/2013 03:11:06 ( 10.04, 151.93) 08/10/2013 03:14:41 ( 22.66, 148.92)
20 08/10/2013 15:43:00 ( 22.67, 149.18) 08/10/2013 15:46:35 ( 10.05, 146.17)
21 08/11/2013 02:52:06 ( 10.05, 156.69) 08/11/2013 02:55:41 ( 22.67, 153.68)
22 08/11/2013 15:23:59 ( 22.66, 153.94) 08/11/2013 15:27:34 ( 10.04, 150.93)
23 08/12/2013 02:33:05 ( 10.05, 161.44) 08/12/2013 02:36:40 ( 22.67, 158.43)
24 08/12/2013 15:04:59 ( 22.66, 158.69) 08/12/2013 15:08:34 ( 10.04, 155.68)
25 08/13/2013 02:14:49 ( 12.64, 165.60) 08/13/2013 02:17:40 ( 22.68, 163.19)
26 08/13/2013 03:55:34 ( 10.00, 140.83) 08/13/2013 03:57:11 ( 15.70, 139.51)
27 08/13/2013 14:45:58 ( 22.65, 163.44) 08/13/2013 14:49:33 ( 10.03, 160.44)
28 08/14/2013 03:36:33 ( 10.01, 145.59) 08/14/2013 03:40:09 ( 22.68, 142.56)
29 08/14/2013 14:30:03 ( 11.79, 165.59) 08/14/2013 14:30:33 ( 10.03, 165.19)
30 08/14/2013 16:08:28 ( 22.65, 142.82) 08/14/2013 16:12:03 ( 10.03, 139.81)
31 08/15/2013 03:17:33 ( 10.01, 150.34) 08/15/2013 03:21:09 ( 22.69, 147.32)
32 08/15/2013 15:49:26 ( 22.70, 147.59) 08/15/2013 15:53:02 ( 10.02, 144.57)


NCC Satellite Cal/Val Overpasses Prediction Service
